AirNav   Air Wisconsin pilot careers
 
 1511 users online  

3D8 Bordner Airport
Bowling Green, Ohio, USA

GOING TO BOWLING GREEN?


FAA INFORMATION EFFECTIVE 16 AUGUST 2018

Location

FAA Identifier: 3D8
Lat/Long: 41-20-09.6000N / 083-43-23.5000W
41-20.160000N / 083-43.391667W
41.3360000 / -83.7231944
(estimated)
Elevation: 690 ft. / 210 m (estimated)
Variation: 05W (1985)
From city: 4 miles SW of BOWLING GREEN, OH
Time zone: UTC -4 (UTC -5 during Standard Time)
Zip code: 43569

Airport Operations

Airport use: Open to the public
Activation date: 11/1960
Control tower: no
ARTCC: CLEVELAND CENTER
FSS: CLEVELAND FLIGHT SERVICE STATION
NOTAMs facility: CLE (NOTAM-D service available)
Attendance: UNATNDD
Wind indicator: yes
Segmented circle: no
Lights: NSTD SOLAR LIGHTS.

Airport Communications

CTAF: 122.9
WX AWOS-3 at 1G0 (5 nm NE): 120.725 (419-354-1415)
WX ASOS at TOL (16 nm N): PHONE 419-865-6924
WX AWOS-3 at FZI (17 nm SE): 124.625 (419-436-0053)
WX ASOS at TDZ (17 nm NE): 121.575 (419-838-5034)
WX ASOS at FDY (20 nm S): 132.85 (419-427-8524)

Nearby radio navigation aids

VOR radial/distance  VOR name  Freq  Var
VWVr211/7.9WATERVILLE VOR/DME113.1002W
FBCr006/22.9FLAG CITY VORTAC108.2002W

 
NDB name  Hdg/Dist  Freq  Var  ID
TIFFIN307/27.126905WTII - .. ..
ADRIAN160/35.827806WADG .- -.. --.
PORT CLINTON261/40.042307WPCW .--. -.-. .--

Airport Services

Runway Information

Runway 9/27

Dimensions: 2623 x 30 ft. / 799 x 9 m
Surface: turf, in fair condition
Weight bearing capacity: 
Single wheel: 5.0
Runway edge lights: low intensity
RUNWAY 9  RUNWAY 27
Latitude: 41-20.164743N41-20.153838N
Longitude: 083-43.677917W083-43.105080W
Elevation: 684.5 ft.689.5 ft.
Gradient: 0.2%0.2%
Traffic pattern: rightleft
Runway heading: 096 magnetic, 091 true276 magnetic, 271 true
Runway end identifier lights: nono
Obstructions: 29 ft. pline, marked, 48 ft. from runway, 1:1 slope to clear15 ft. brush, 45 ft. right of centerline

Airport Ownership and Management from official FAA records

Ownership: Privately-owned
Owner: BERNIE STEINBAUGH
16662 HODGMAN RD
WESTON, OH 43569
Phone 419-353-4732
Manager: BERNIE STEINBAUGH
16662 HODGMAN RD
WESTON, OH 43569
Phone 419-353-4732

Airport Operational Statistics

Aircraft based on the field: 3
Single engine airplanes: 3
    

Additional Remarks

LNDG AREA TURF AND ASPH WITH GRASS GROWING INTO SOME OF THE ASPH. LAND AT OWN RISK. W 540 FT. TURF, THEN 800 FT TURF/ASPH, THEN 615 FT ASPH/GRAVEL, THEN E 660 FT TURF/ASPH. E 50 FT UNUSABLE BROKEN ASPH, GRAVEL, RUTS, POTHOLES.
RWY CLSD INDFLY.

Instrument Procedures

There are no published instrument procedures at 3D8.

Some nearby airports with instrument procedures:

1G0 - Wood County Airport (5 nm NE)
KTOL - Toledo Express Airport (16 nm N)
7W5 - Henry County Airport (16 nm W)
KFZI - Fostoria Metropolitan Airport (17 nm SE)
KTDZ - Toledo Executive Airport (17 nm NE)
KFDY - Findlay Airport (20 nm S)
 
Loc | Ops | Rwys | IFR | FBO | Links
Com | Nav | Svcs | Stats | Notes


 
Area around 3D8 (Bordner Airport)
 
Road maps at: MapQuest Bing Google
 
Aerial photo
WARNING: Photo may not be current or correct
Aerial photo of 3D8 (Bordner Airport)
Do you have a better or more recent aerial photo of Bordner Airport that you would like to share? If so, please send us your photo.

 
Sectional chart

 
Airport distance calculator
Flying to Bordner Airport? Find the distance to fly.

From to 3D8

Sunrise and sunset
Times for 20-Aug-2018
 Local
(UTC-4)
 Zulu
(UTC)
Morning civil twilight06:2110:21
Sunrise06:5010:50
Sunset20:2600:26
Evening civil twilight20:5600:56

Current date and time
Zulu (UTC)  20-Aug-2018 21:03:03
Local (UTC-4)  20-Aug-2018 17:03:03
 
METAR
KTOL 
15nm N 
202052Z 07009KT 10SM CLR 26/18 A2992 RMK AO2 SLP129 T02610178 56016
KTDZ 
18nm NE 
202053Z AUTO 07007KT 10SM CLR 26/19 A2994 RMK AO2 SLP135 T02610194 56013
KFDY 
19nm S 
202053Z AUTO 10008KT 10SM CLR 27/19 A2991 RMK AO2 SLP119 T02720189 58018
KOWX 
21nm SW 
202055Z AUTO 10005KT 10SM SCT110 25/18 A2992 RMK AO1
KDUH 
24nm N 
202055Z AUTO 08007KT 10SM CLR 26/17 A2994 RMK AO2 T02550169
KUSE 
24nm NW 
202045Z AUTO 10009KT 9SM CLR 25/21 A2993 RMK AO2
TAF
KTOL 
15nm N 
201912Z 2019/2118 09010KT P6SM BKN250 FM202200 10008KT P6SM OVC070 FM210000 10006KT 3SM TSRA OVC025CB FM210200 14004KT 6SM BR OVC050 FM211000 17004KT 4SM SHRA OVC025 FM211400 23008KT 3SM SHRA OVC015
KFDY 
19nm S 
201733Z 2018/2118 14010KT P6SM BKN250 FM202100 13008KT P6SM OVC070 FM202300 12008KT 3SM TSRA OVC030CB FM210200 13004KT 6SM BR OVC050 FM210900 16004KT 4SM SHRA OVC035 FM211400 23010G18KT 3SM SHRA OVC025
NOTAMs
Click for the latest NOTAMs
NOTAMs are issued by the DoD/FAA and will open in a separate window not controlled by AirNav.

 

 
 

Would you like to see your business listed on this page?

 If your business provides an interesting product or service to pilots, flight crews, aircraft, or users of the Bordner Airport, you should consider listing it here.  To start the listing process, click on the button below
 
Add a business
 

Other Pages about Bordner Airport

Update a link
 
Copyright © AirNav, LLC. All rights reserved. Privacy Policy  Contact